| time (UTC) | temp C | wind direction | speed KPH | gust KPH | rain 1hr cm | rain 24hr cm | rain mn cm | humidity % | barometer mb |
| 20260505022522 | 18 | 0 | 0.0 | 0.0 | 0.00 | 0.00 | 0.00 | 58 | 1010.1 |
| 20260505022027 | 18 | 0 | 0.0 | 1.6 | 0.00 | 0.00 | 0.00 | 59 | 1010.0 |
| 20260505021539 | 19 | 0 | 0.0 | 1.6 | 0.00 | 0.00 | 0.00 | 58 | 1009.9 |
| 20260505021021 | 19 | 0 | 0.0 | 1.6 | 0.00 | 0.00 | 0.00 | 59 | 1009.9 |
| 20260505020523 | 19 | 0 | 0.0 | 1.6 | 0.00 | 0.00 | 0.00 | 58 | 1010.0 |
| 20260505020035 | 19 | 0 | 0.0 | 3.2 | 0.00 | 0.00 | 0.00 | 57 | 1010.0 |
| 20260505015521 | 20 | 0 | 0.0 | 3.2 | 0.00 | 0.00 | 0.00 | 56 | 1010.0 |
| 20260505015026 | 20 | 255 | 0.0 | 3.2 | 0.00 | 0.00 | 0.00 | 54 | 1010.0 |
| 20260505014535 | 20 | 255 | 0.0 | 3.2 | 0.00 | 0.00 | 0.00 | 53 | 1009.9 |
| 20260505014029 | 20 | 0 | 1.6 | 3.2 | 0.00 | 0.00 | 0.00 | 53 | 1010.0 |
| 20260505013522 | 21 | 230 | 0.0 | 3.2 | 0.00 | 0.00 | 0.00 | 52 | 1010.0 |
| 20260505013058 | 21 | 231 | 0.0 | 4.8 | 0.00 | 0.00 | 0.00 | 50 | 1010.0 |
| 20260505012522 | 21 | 246 | 0.0 | 4.8 | 0.00 | 0.00 | 0.00 | 49 | 1010.0 |
| 20260505012022 | 22 | 233 | 0.0 | 4.8 | 0.00 | 0.00 | 0.00 | 48 | 1010.0 |
| 20260505011539 | 22 | 0 | 0.0 | 3.2 | 0.00 | 0.00 | 0.00 | 45 | 1010.1 |
| 20260505011022 | 22 | 232 | 0.0 | 4.8 | 0.00 | 0.00 | 0.00 | 46 | 1010.1 |
| 20260505010521 | 22 | 0 | 1.6 | 4.8 | 0.00 | 0.00 | 0.00 | 45 | 1010.2 |
| 20260505010038 | 23 | 198 | 0.0 | 3.2 | 0.00 | 0.00 | 0.00 | 44 | 1010.2 |
| 20260505005524 | 23 | 237 | 0.0 | 3.2 | 0.00 | 0.00 | 0.00 | 43 | 1010.2 |
| 20260505005023 | 23 | 227 | 0.0 | 3.2 | 0.00 | 0.00 | 0.00 | 43 | 1010.2 |
| 20260505004535 | 23 | 0 | 0.0 | 4.8 | 0.00 | 0.00 | 0.00 | 41 | 1010.2 |
| 20260505004023 | 23 | 265 | 1.6 | 4.8 | 0.00 | 0.00 | 0.00 | 40 | 1010.2 |
| 20260505003522 | 23 | 0 | 0.0 | 3.2 | 0.00 | 0.00 | 0.00 | 42 | 1010.2 |
| 20260505003035 | 23 | 0 | 0.0 | 3.2 | 0.00 | 0.00 | 0.00 | 41 | 1010.2 |
| 20260505002522 | 23 | 0 | 0.0 | 6.4 | 0.00 | 0.00 | 0.00 | 40 | 1010.2 |
| 20260505002024 | 23 | 0 | 0.0 | 6.4 | 0.00 | 0.00 | 0.00 | 41 | 1010.2 |
| 20260505001540 | 23 | 272 | 0.0 | 6.4 | 0.00 | 0.00 | 0.00 | 40 | 1010.1 |
| 20260505001021 | 24 | 261 | 1.6 | 6.4 | 0.00 | 0.00 | 0.00 | 39 | 1010.1 |
| 20260505000521 | 24 | 111 | 0.0 | 4.8 | 0.00 | 0.00 | 0.00 | 38 | 1010.1 |
| 20260505000051 | 24 | 278 | 0.0 | 4.8 | 0.00 | 0.00 | 0.00 | 40 | 1010.1 |
| 20260504235522 | 24 | 287 | 1.6 | 9.7 | 0.00 | 0.00 | 0.00 | 38 | 1010.1 |
| 20260504235022 | 24 | 5 | 0.0 | 9.7 | 0.00 | 0.00 | 0.00 | 36 | 1010.2 |
| 20260504234538 | 24 | 71 | 0.0 | 9.7 | 0.00 | 0.00 | 0.00 | 37 | 1010.1 |
| 20260504234024 | 24 | 36 | 0.0 | 4.8 | 0.00 | 0.00 | 0.00 | 36 | 1010.1 |
| 20260504233523 | 25 | 303 | 0.0 | 4.8 | 0.00 | 0.00 | 0.00 | 35 | 1010.1 |
| 20260504233038 | 25 | 0 | 0.0 | 4.8 | 0.00 | 0.00 | 0.00 | 36 | 1010.0 |
| 20260504232525 | 25 | 13 | 0.0 | 14.5 | 0.00 | 0.00 | 0.00 | 36 | 1010.1 |
| 20260504232022 | 25 | 296 | 0.0 | 14.5 | 0.00 | 0.00 | 0.00 | 35 | 1010.0 |
| 20260504231535 | 25 | 63 | 1.6 | 14.5 | 0.00 | 0.00 | 0.00 | 35 | 1010.1 |
| 20260504231022 | 25 | 0 | 1.6 | 14.5 | 0.00 | 0.00 | 0.00 | 37 | 1010.1 |
| 20260504230522 | 25 | 92 | 1.6 | 14.5 | 0.00 | 0.00 | 0.00 | 34 | 1010.1 |
| 20260504230040 | 25 | 0 | 1.6 | 14.5 | 0.00 | 0.00 | 0.00 | 35 | 1010.2 |
| 20260504225518 | 25 | 284 | 0.0 | 11.3 | 0.00 | 0.00 | 0.00 | 35 | 1010.2 |
| 20260504225021 | 25 | 286 | 3.2 | 11.3 | 0.00 | 0.00 | 0.00 | 36 | 1010.3 |
| 20260504224538 | 26 | 309 | 1.6 | 16.1 | 0.00 | 0.00 | 0.00 | 39 | 1010.4 |
| 20260504224021 | 26 | 24 | 0.0 | 16.1 | 0.00 | 0.00 | 0.00 | 39 | 1010.4 |
| 20260504223522 | 25 | 100 | 1.6 | 16.1 | 0.00 | 0.00 | 0.00 | 36 | 1010.4 |
| 20260504223044 | 25 | 315 | 1.6 | 11.3 | 0.00 | 0.00 | 0.00 | 39 | 1010.5 |
| 20260504222525 | 26 | 253 | 1.6 | 9.7 | 0.00 | 0.00 | 0.00 | 38 | 1010.4 |
| 20260504222022 | 25 | 260 | 1.6 | 11.3 | 0.00 | 0.00 | 0.00 | 39 | 1010.5 |
| 20260504221535 | 25 | 24 | 3.2 | 11.3 | 0.00 | 0.00 | 0.00 | 38 | 1010.5 |
| 20260504221022 | 26 | 233 | 3.2 | 11.3 | 0.00 | 0.00 | 0.00 | 37 | 1010.5 |
| 20260504220522 | 25 | 113 | 1.6 | 11.3 | 0.00 | 0.00 | 0.00 | 38 | 1010.6 |
| 20260504220041 | 26 | 271 | 1.6 | 11.3 | 0.00 | 0.00 | 0.00 | 37 | 1010.6 |
| 20260504215521 | 25 | 0 | 1.6 | 11.3 | 0.00 | 0.00 | 0.00 | 38 | 1010.7 |
| 20260504215024 | 25 | 55 | 1.6 | 9.7 | 0.00 | 0.00 | 0.00 | 36 | 1010.7 |
| 20260504214545 | 25 | 284 | 3.2 | 9.7 | 0.00 | 0.00 | 0.00 | 38 | 1010.6 |
| 20260504214023 | 26 | 0 | 1.6 | 9.7 | 0.00 | 0.00 | 0.00 | 36 | 1010.6 |
| 20260504213524 | 25 | 0 | 0.0 | 9.7 | 0.00 | 0.00 | 0.00 | 40 | 1010.6 |
| 20260504213042 | 25 | 94 | 3.2 | 14.5 | 0.00 | 0.00 | 0.00 | 37 | 1010.6 |
| 20260504212520 | 24 | 111 | 1.6 | 14.5 | 0.00 | 0.00 | 0.00 | 38 | 1010.6 |
| 20260504212026 | 25 | 103 | 3.2 | 14.5 | 0.00 | 0.00 | 0.00 | 38 | 1010.7 |
| 20260504211539 | 25 | 0 | 1.6 | 6.4 | 0.00 | 0.00 | 0.00 | 38 | 1010.6 |
| 20260504211023 | 25 | 93 | 1.6 | 11.3 | 0.00 | 0.00 | 0.00 | 38 | 1010.7 |
| 20260504210523 | 24 | 0 | 1.6 | 11.3 | 0.00 | 0.00 | 0.00 | 40 | 1010.7 |
| 20260504210040 | 24 | 98 | 1.6 | 9.7 | 0.00 | 0.00 | 0.00 | 39 | 1010.8 |
| 20260504205523 | 24 | 66 | 0.0 | 9.7 | 0.00 | 0.00 | 0.00 | 39 | 1010.8 |
| 20260504205024 | 25 | 0 | 1.6 | 11.3 | 0.00 | 0.00 | 0.00 | 40 | 1010.9 |
| 20260504204543 | 25 | 84 | 1.6 | 11.3 | 0.00 | 0.00 | 0.00 | 41 | 1010.9 |
| 20260504204020 | 24 | 111 | 1.6 | 8.0 | 0.00 | 0.00 | 0.00 | 40 | 1010.9 |
| 20260504203521 | 25 | 299 | 1.6 | 12.9 | 0.00 | 0.00 | 0.00 | 41 | 1010.8 |
| 20260504203042 | 24 | 350 | 3.2 | 12.9 | 0.00 | 0.00 | 0.00 | 39 | 1010.9 |
| 20260504202520 | 24 | 25 | 4.8 | 12.9 | 0.00 | 0.00 | 0.00 | 39 | 1010.8 |
| 20260504202019 | 24 | 167 | 0.0 | 9.7 | 0.00 | 0.00 | 0.00 | 40 | 1010.8 |
| 20260504201548 | 23 | 117 | 0.0 | 8.0 | 0.00 | 0.00 | 0.00 | 41 | 1010.8 |
| 20260504201022 | 23 | 226 | 1.6 | 12.9 | 0.00 | 0.00 | 0.00 | 43 | 1010.9 |
| 20260504200520 | 23 | 89 | 3.2 | 12.9 | 0.00 | 0.00 | 0.00 | 42 | 1011.0 |
| 20260504200038 | 23 | 85 | 3.2 | 12.9 | 0.00 | 0.00 | 0.00 | 41 | 1011.0 |
| 20260504195522 | 23 | 231 | 0.0 | 11.3 | 0.00 | 0.00 | 0.00 | 43 | 1011.1 |
| 20260504195022 | 23 | 275 | 3.2 | 11.3 | 0.00 | 0.00 | 0.00 | 42 | 1011.0 |
| 20260504194535 | 23 | 238 | 1.6 | 9.7 | 0.00 | 0.00 | 0.00 | 41 | 1011.0 |
| 20260504194022 | 23 | 0 | 0.0 | 9.7 | 0.00 | 0.00 | 0.00 | 41 | 1011.1 |
| 20260504193522 | 23 | 71 | 1.6 | 9.7 | 0.00 | 0.00 | 0.00 | 41 | 1011.0 |
| 20260504193043 | 23 | 134 | 3.2 | 9.7 | 0.00 | 0.00 | 0.00 | 40 | 1011.2 |
| 20260504192522 | 22 | 275 | 3.2 | 12.9 | 0.00 | 0.00 | 0.00 | 41 | 1011.3 |
| 20260504192025 | 22 | 213 | 1.6 | 12.9 | 0.00 | 0.00 | 0.00 | 42 | 1011.3 |
| 20260504191551 | 22 | 104 | 3.2 | 12.9 | 0.00 | 0.00 | 0.00 | 41 | 1011.3 |
| 20260504191022 | 22 | 111 | 3.2 | 12.9 | 0.00 | 0.00 | 0.00 | 41 | 1011.3 |
| 20260504190522 | 22 | 161 | 1.6 | 9.7 | 0.00 | 0.00 | 0.00 | 40 | 1011.4 |
| 20260504190043 | 22 | 88 | 1.6 | 8.0 | 0.00 | 0.00 | 0.00 | 41 | 1011.4 |
| 20260504185519 | 22 | 113 | 1.6 | 6.4 | 0.00 | 0.00 | 0.00 | 41 | 1011.4 |
| 20260504185019 | 22 | 59 | 1.6 | 6.4 | 0.00 | 0.00 | 0.00 | 43 | 1011.4 |
| 20260504184552 | 22 | 101 | 0.0 | 6.4 | 0.00 | 0.00 | 0.00 | 44 | 1011.5 |
| 20260504184023 | 22 | 0 | 0.0 | 6.4 | 0.00 | 0.00 | 0.00 | 46 | 1011.4 |
| 20260504183520 | 21 | 0 | 0.0 | 6.4 | 0.00 | 0.00 | 0.00 | 45 | 1011.5 |
| 20260504183034 | 22 | 0 | 0.0 | 4.8 | 0.00 | 0.00 | 0.00 | 43 | 1011.5 |
| 20260504182522 | 21 | 0 | 0.0 | 6.4 | 0.00 | 0.00 | 0.00 | 43 | 1011.5 |
| 20260504182022 | 21 | 231 | 1.6 | 6.4 | 0.00 | 0.00 | 0.00 | 47 | 1011.6 |
| 20260504181547 | 21 | 49 | 3.2 | 6.4 | 0.00 | 0.00 | 0.00 | 46 | 1011.6 |
| 20260504181022 | 22 | 0 | 0.0 | 4.8 | 0.00 | 0.00 | 0.00 | 50 | 1011.6 |
| 20260504180522 | 21 | 0 | 1.6 | 6.4 | 0.00 | 0.00 | 0.00 | 48 | 1011.6 |
| 20260504180044 | 21 | 217 | 1.6 | 6.4 | 0.00 | 0.00 | 0.00 | 47 | 1011.5 |
| 20260504175522 | 21 | 192 | 0.0 | 4.8 | 0.00 | 0.00 | 0.00 | 49 | 1011.5 |
| 20260504175022 | 21 | 230 | 1.6 | 4.8 | 0.00 | 0.00 | 0.00 | 49 | 1011.5 |
| 20260504174541 | 21 | 0 | 0.0 | 4.8 | 0.00 | 0.00 | 0.00 | 50 | 1011.5 |
| 20260504174022 | 20 | 0 | 0.0 | 4.8 | 0.00 | 0.00 | 0.00 | 48 | 1011.5 |
| 20260504173520 | 20 | 0 | 0.0 | 4.8 | 0.00 | 0.00 | 0.00 | 52 | 1011.4 |
| 20260504173038 | 20 | 74 | 0.0 | 4.8 | 0.00 | 0.00 | 0.00 | 48 | 1011.4 |
| 20260504172519 | 20 | 236 | 0.0 | 4.8 | 0.00 | 0.00 | 0.00 | 47 | 1011.4 |
| 20260504172023 | 20 | 0 | 0.0 | 6.4 | 0.00 | 0.00 | 0.00 | 49 | 1011.4 |
| 20260504171544 | 20 | 278 | 1.6 | 11.3 | 0.00 | 0.00 | 0.00 | 48 | 1011.5 |
| 20260504171026 | 20 | 0 | 1.6 | 11.3 | 0.00 | 0.00 | 0.00 | 48 | 1011.5 |
| 20260504170528 | 20 | 0 | 1.6 | 4.8 | 0.00 | 0.00 | 0.00 | 47 | 1011.4 |
| 20260504151022 | 14 | 101 | 1.6 | 9.7 | 0.00 | 0.00 | 0.00 | 65 | 1011.0 |
| 20260504150523 | 14 | 53 | 1.6 | 6.4 | 0.00 | 0.00 | 0.00 | 66 | 1011.1 |
| 20260504141019 | 10 | 0 | 0.0 | 3.2 | 0.00 | 0.00 | 0.00 | 84 | 1010.7 |
| 20260504140523 | 10 | 0 | 0.0 | 3.2 | 0.00 | 0.00 | 0.00 | 84 | 1010.7 |
| 20260504130524 | 10 | 0 | 0.0 | 3.2 | 0.00 | 0.00 | 0.00 | 85 | 1010.4 |
| 20260504110522 | 12 | 0 | 0.0 | 4.8 | 0.00 | 0.00 | 0.00 | 74 | 1010.5 |
| 20260504100522 | 12 | 0 | 0.0 | 4.8 | 0.00 | 0.00 | 0.00 | 73 | 1010.4 |
| 20260504081538 | 14 | 203 | 0.0 | 3.2 | 0.00 | 0.00 | 0.00 | 64 | 1010.7 |
| 20260504081021 | 14 | 194 | 0.0 | 4.8 | 0.00 | 0.00 | 0.00 | 64 | 1010.7 |
| 20260504080523 | 15 | 0 | 0.0 | 4.8 | 0.00 | 0.00 | 0.00 | 64 | 1010.7 |
| 20260504050524 | 15 | 0 | 0.0 | 1.6 | 0.00 | 0.00 | 0.00 | 67 | 1010.7 |
| 20260504045521 | 16 | 0 | 0.0 | 1.6 | 0.00 | 0.00 | 0.00 | 65 | 1010.9 |
| 20260504045020 | 16 | 0 | 0.0 | 0.0 | 0.00 | 0.00 | 0.00 | 63 | 1010.8 |
| 20260504044538 | 15 | 0 | 0.0 | 0.0 | 0.00 | 0.00 | 0.00 | 63 | 1010.8 |
| 20260504044020 | 15 | 0 | 0.0 | 0.0 | 0.00 | 0.00 | 0.00 | 64 | 1010.7 |
| 20260504043522 | 15 | 0 | 0.0 | 0.0 | 0.00 | 0.00 | 0.00 | 64 | 1010.6 |
| 20260504043039 | 16 | 0 | 0.0 | 0.0 | 0.00 | 0.00 | 0.00 | 65 | 1010.6 |
| 20260504042521 | 16 | 0 | 0.0 | 0.0 | 0.00 | 0.00 | 0.00 | 64 | 1010.5 |
| 20260504042020 | 16 | 0 | 0.0 | 0.0 | 0.00 | 0.00 | 0.00 | 63 | 1010.5 |
| 20260504041537 | 16 | 0 | 0.0 | 0.0 | 0.00 | 0.00 | 0.00 | 62 | 1010.4 |
| 20260504041019 | 16 | 0 | 0.0 | 0.0 | 0.00 | 0.00 | 0.00 | 63 | 1010.4 |
| 20260504040522 | 16 | 0 | 0.0 | 0.0 | 0.00 | 0.00 | 0.00 | 63 | 1010.4 |
| 20260504040041 | 16 | 0 | 0.0 | 0.0 | 0.00 | 0.00 | 0.00 | 63 | 1010.5 |
| 20260504035524 | 16 | 0 | 0.0 | 0.0 | 0.00 | 0.00 | 0.00 | 63 | 1010.3 |
| 20260504035018 | 16 | 0 | 0.0 | 0.0 | 0.00 | 0.00 | 0.00 | 64 | 1010.3 |
| 20260504034542 | 17 | 0 | 0.0 | 0.0 | 0.00 | 0.00 | 0.00 | 63 | 1010.2 |
| 20260504034023 | 17 | 0 | 0.0 | 0.0 | 0.00 | 0.00 | 0.00 | 63 | 1010.3 |
| 20260504033519 | 17 | 0 | 0.0 | 1.6 | 0.00 | 0.00 | 0.00 | 62 | 1010.2 |
| 20260504033049 | 17 | 0 | 0.0 | 1.6 | 0.00 | 0.00 | 0.00 | 61 | 1010.2 |
| 20260504032520 | 17 | 252 | 0.0 | 1.6 | 0.00 | 0.00 | 0.00 | 61 | 1010.1 |
| 20260504032021 | 17 | 0 | 0.0 | 1.6 | 0.00 | 0.00 | 0.00 | 62 | 1010.2 |
| 20260504031538 | 17 | 0 | 0.0 | 3.2 | 0.00 | 0.00 | 0.00 | 60 | 1010.1 |
| 20260504031019 | 18 | 0 | 0.0 | 3.2 | 0.00 | 0.00 | 0.00 | 60 | 1010.1 |
| 20260504030519 | 18 | 0 | 0.0 | 3.2 | 0.00 | 0.00 | 0.00 | 59 | 1010.1 |
| 20260504030039 | 18 | 0 | 0.0 | 0.0 | 0.00 | 0.00 | 0.00 | 59 | 1010.0 |
| 20260504025520 | 18 | 0 | 0.0 | 0.0 | 0.00 | 0.00 | 0.00 | 59 | 1009.9 |
| 20260504025022 | 18 | 0 | 0.0 | 0.0 | 0.00 | 0.00 | 0.00 | 59 | 1009.9 |
| 20260504024554 | 18 | 0 | 0.0 | 0.0 | 0.00 | 0.00 | 0.00 | 59 | 1009.9 |
| 20260504024022 | 18 | 0 | 0.0 | 0.0 | 0.00 | 0.00 | 0.00 | 59 | 1009.9 |
| 20260504023521 | 18 | 0 | 0.0 | 0.0 | 0.00 | 0.00 | 0.00 | 58 | 1009.9 |
| 20260504023044 | 19 | 0 | 0.0 | 3.2 | 0.00 | 0.00 | 0.00 | 58 | 1010.0 |